sat.trackr.live / text

‹ back to catalog

STARLINK-30527

NORAD 58007 · 2023-153S

PAYLOAD ACTIVE UNKNOWN

§ Identity

Operator
Country
US
Launch date
2023-10-05
Launch site
AFETR
Launch vehicle
Mass (kg)
RCS (m²)

Purposes: comms

External: N2YO · Heavens-Above · Gunter

§ Orbital elements

Epoch: 2026-09-20T04:12:03.345408Z

Period
94.27 min
Inclination
43.0027°
Eccentricity
0.0001918
Mean motion
15.27568601 rev/d
Perigee alt
481.8 km
Apogee alt
484.4 km
Semi-major
6,861.2 km
B*
-6.5738e-5
RAAN
180.0320°
Arg perigee
255.1182°
Mean anomaly
104.9458°
Rev number
16,720

§ Raw data

STARLINK-305271 58007U 23153S   26263.17503872 -.00002070  00000+0 -65738-4 0  99992 58007  43.0027 180.0320 0001918 255.1182 104.9458 15.27568601167203

JSON: /api/v1/satellites/58007 · /tle

For live sub-satellite position, see the globe view (requires WebGL).

§ Visibility from observer

Set your observer location to see the next 7 days of passes ≥ 10°. The values pass through the URL so the page stays shareable.

No JS? Fill the form by hand. The geolocation button needs JavaScript.